Temperature
21 18 18 18 19 19 19 19 19 19 20 19 17 17 17 18 18 17 17 17 17 18 18 18 18 17 18 18 17 17 17 17 17 17 16 16 16 16 15 15 15 15 15 15
18 18 19 20 20 20 19 19 19 19 20 19 17 17 17 17 17 18 17 17 17 17 17 17 17 17 17 17 17 17 17 17 17 17 16 16 16 15 15 15 15 15 15 14
18 19 21 21 20 20 19 19 19 19 19 19 18 17 17 17 17 17 18 18 17 17 17 17 17 17 17 17 17 17 17 17 16 16 16 16 16 15 15 15 15 14 14 14
19 20 21 20 20 20 19 20 20 19 18 17 18 16 16 16 16 16 16 17 17 17 17 17 17 17 17 17 17 16 16 16 16 16 16 16 15 15 15 15 14 14 14 14
19 20 20 20 20 20 20 20 20 19 18 17 17 16 15 16 15 16 16 16 16 17 17 17 17 16 16 16 16 16 16 16 16 16 16 15 15 15 15 14 14 14 14 14
19 20 20 20 21 21 20 19 18 16 16 16 16 16 15 15 16 16 16 16 16 16 16 16 16 16 16 16 16 16 16 16 16 15 15 15 15 15 15 14 14 14 14 14
19 19 20 21 20 20 19 16 16 16 15 15 16 16 15 16 16 16 16 16 16 16 16 16 16 16 16 15 15 15 15 15 15 15 15 15 14 14 14 14 14 14 14 14
17 17 19 20 19 19 18 16 15 16 15 15 16 15 15 16 17 17 16 16 16 16 16 16 16 16 15 15 15 15 15 15 15 15 15 14 14 14 14 14 14 14 14 13
16 17 19 20 20 19 18 16 16 15 16 15 15 15 16 16 16 15 15 15 15 16 16 16 15 15 15 15 15 15 15 15 15 15 14 14 14 14 14 14 14 13 13 13
17 17 18 19 20 19 18 17 14 15 15 15 15 15 15 15 15 15 14 14 15 15 15 15 15 15 15 15 15 15 15 15 14 14 14 14 14 14 13 13 13 13 13 13
16 16 17 18 18 18 18 17 15 14 14 14 14 15 16 15 15 14 14 14 15 15 15 15 15 15 15 15 15 15 14 14 14 14 14 14 13 13 13 13 13 13 13 12
15 14 15 16 17 18 17 17 15 15 15 14 13 14 16 15 15 15 14 14 14 15 15 15 15 14 14 14 14 14 14 14 14 14 13 13 13 13 13 13 13 12 12 12
15 14 14 15 16 17 17 17 16 14 13 13 13 14 15 14 14 15 14 14 14 14 14 14 14 14 14 13 13 14 13 13 13 13 13 13 13 13 12 12 12 12 12 12
15 13 14 15 15 15 16 17 17 15 14 13 14 14 14 14 13 14 14 14 14 14 14 14 13 13 13 13 13 13 13 13 12 12 12 12 12 12 12 12 12 12 11 11
14 14 14 15 15 16 16 16 16 15 15 14 14 14 14 14 13 13 14 14 13 13 13 13 13 13 13 12 12 13 12 12 12 12 12 12 12 12 11 11 11 11 11 11
13 14 14 15 16 16 15 15 15 15 15 14 14 14 14 14 13 13 13 13 12 12 12 13 12 12 12 12 12 12 12 12 12 12 12 11 11 11 11 11 11 11 11 10
12 13 13 13 14 15 14 14 14 14 14 14 14 14 13 12 12 12 12 12 12 12 12 12 12 12 12 12 12 12 12 11 11 11 11 11 11 11 11 10 10 10 10 10
12 12 11 12 14 14 14 14 14 14 14 13 13 13 13 12 13 13 13 13 12 12 12 12 12 12 11 11 11 11 11 11 11 11 11 11 10 10 10 10 10 10 10 9
12 12 11 11 12 12 13 14 14 14 13 13 12 12 12 12 12 11 12 12 12 12 12 12 12 11 11 11 11 11 11 11 10 10 10 10 10 10 9 9 9 9 9 9
11 11 11 11 12 12 13 14 14 14 12 12 12 11 11 11 9 10 12 12 12 12 11 11 11 11 11 11 10 10 10 10 10 10 9 9 9 9 9 9 9 9 8 8
12 11 10 10 11 11 12 13 14 13 12 13 12 12 11 11 11 12 12 12 12 11 11 11 11 10 10 10 10 10 9 9 9 9 9 9 9 8 8 8 8 8 8 8
11 10 10 10 10 11 12 12 12 12 13 13 13 13 12 12 12 11 11 11 11 11 11 10 10 10 9 9 9 9 9 8 8 8 8 8 8 8 8 8 8 8 7 7
10 10 10 10 11 11 13 13 13 13 13 13 13 12 12 12 11 11 11 11 10 10 10 10 9 9 9 9 8 8 8 8 8 8 8 7 7 7 7 7 7 7 7 7
10 10 9 9 10 11 12 12 12 13 12 12 12 12 12 11 11 10 10 10 10 10 9 9 9 8 8 8 8 8 7 7 7 7 7 7 7 7 7 7 6 6 6 6
9 10 9 9 9 10 11 12 12 12 12 12 12 12 11 11 10 10 10 9 9 9 9 8 8 8 8 8 7 7 7 7 6 6 6 6 6 6 6 6 6 6 6 5
9 9 9 9 10 9 11 11 11 11 11 11 11 11 11 11 10 9 9 9 9 9 8 8 8 8 7 7 7 7 6 6 6 6 6 5 5 5 5 5 5 5 5 5
Wind_Speed
1 4 2 6 7 5 4 4 4 5 4 4 5 4 4 3 3 4 4 4 4 4 4 4 5 5 5 4 4 4 4 3 4 3 3 3 2 1 1 1 3 4 4 4
4 2 6 4 2 3 3 2 1 1 3 4 4 3 3 3 4 6 7 6 6 4 3 3 4 4 4 4 3 4 4 3 3 3 3 3 3 2 2 1 2 3 4 4
4 4 3 3 1 3 3 5 4 3 0 2 3 2 3 3 2 3 4 5 6 7 6 5 4 4 4 4 4 4 3 3 2 3 3 3 3 2 2 1 1 0 3 3
2 4 1 2 2 4 4 5 5 4 3 3 3 2 5 3 1 2 2 3 5 5 5 5 5 4 4 4 4 4 3 3 3 3 4 5 3 2 2 1 1 1 1 2
3 2 2 2 4 4 5 4 3 3 3 1 1 3 5 1 3 4 4 4 5 6 7 6 6 6 5 4 3 3 3 3 3 4 4 4 3 2 1 1 1 0 0 1
4 3 3 4 3 3 2 4 5 4 4 2 4 5 4 3 6 5 4 4 5 6 6 6 5 4 3 2 2 3 3 3 3 3 3 3 3 3 3 2 2 1 1 1
4 4 3 1 1 2 5 5 3 3 2 4 2 4 5 5 5 7 6 5 5 5 6 5 5 4 3 3 3 3 4 3 2 3 3 3 3 3 4 3 3 2 1 1
1 5 4 2 4 4 3 7 6 4 4 3 1 3 4 3 1 4 5 5 5 5 5 5 6 6 5 4 3 3 4 3 3 2 2 2 2 2 2 3 3 3 3 3
3 5 4 3 2 6 3 4 6 5 1 1 2 2 4 3 4 4 5 5 5 5 4 4 4 5 5 4 4 4 4 3 3 2 2 1 1 2 2 2 2 2 2 1
5 3 5 3 2 1 4 5 5 3 2 2 3 3 3 4 3 3 5 5 4 3 3 3 3 3 3 4 3 3 4 4 3 3 2 2 1 2 1 1 2 2 2 1
3 2 4 2 3 4 2 2 3 4 4 4 3 5 4 7 7 6 6 6 5 4 4 3 2 1 1 2 3 3 3 2 2 2 2 1 1 1 1 1 1 2 2 1
2 4 2 5 5 4 5 5 6 4 3 4 3 5 3 5 6 7 6 5 5 4 4 3 2 2 2 2 2 2 2 2 2 2 2 2 1 1 1 0 1 1 1 2
3 4 1 5 5 2 1 3 4 5 4 4 4 6 2 2 3 5 6 5 4 4 3 2 2 2 1 1 1 1 1 2 2 1 1 1 1 1 1 2 1 1 1 1
4 4 5 7 6 4 3 4 4 5 4 4 6 6 3 2 3 3 4 5 5 4 3 3 2 1 1 1 1 1 1 1 1 1 1 1 2 2 2 2 1 1 1 1
4 3 5 6 6 4 4 5 4 5 7 8 7 6 7 7 6 6 5 5 4 4 3 3 2 1 1 1 1 1 0 0 1 1 1 2 2 1 1 1 1 1 1 1
2 3 2 4 4 3 2 4 3 5 4 4 3 4 5 2 3 3 4 5 4 3 3 3 2 2 2 2 1 1 0 0 1 1 0 1 1 0 1 1 1 1 1 1
2 3 2 3 3 2 3 3 3 3 3 5 6 6 2 2 3 5 5 5 4 3 3 3 3 3 3 3 2 2 1 0 1 1 1 1 1 1 1 1 1 1 2 1
5 3 3 2 1 5 5 3 3 3 2 2 2 2 4 4 4 3 4 5 4 3 3 2 2 2 2 2 1 1 1 1 1 1 1 2 1 1 1 1 1 2 2 2
5 5 3 2 3 5 5 3 2 4 3 2 2 2 2 3 4 2 1 3 5 4 3 3 2 2 2 2 1 1 1 1 1 1 1 1 1 1 1 1 2 3 2 2
3 4 4 3 3 5 5 4 1 3 2 3 2 3 3 3 1 4 3 2 2 2 2 2 1 2 2 1 2 3 1 1 1 1 1 1 1 1 1 2 2 2 2 3
1 2 3 4 4 5 5 3 2 3 5 3 4 4 5 4 5 4 3 2 3 3 2 2 3 2 1 1 2 2 1 1 2 1 1 1 1 1 1 1 2 2 2 2
4 3 4 3 3 6 3 3 4 6 2 2 3 4 4 2 1 2 3 3 3 3 2 2 3 2 1 2 2 2 1 2 1 1 1 2 2 2 2 1 2 2 2 2
3 5 4 5 5 3 2 3 2 3 2 2 3 2 3 2 1 1 2 2 3 3 2 2 2 2 1 1 2 1 2 1 1 1 1 2 3 3 2 2 2 2 2 2
3 0 2 1 2 2 0 1 2 1 1 1 2 3 4 2 2 1 2 2 2 2 2 2 2 2 1 1 1 1 1 0 1 1 2 2 2 3 3 2 2 2 2 3
4 0 0 2 4 2 2 1 1 1 0 1 1 2 4 4 3 2 3 2 2 2 2 2 2 2 1 0 1 1 0 1 1 1 2 2 2 2 3 3 3 3 3 4
3 4 4 6 6 4 5 4 2 1 0 1 1 1 2 4 4 3 4 3 3 2 2 2 2 2 1 1 1 1 0 1 1 1 1 2 2 2 2 3 4 5 4 6
Wind_Direction
31 87 192 214 197 181 172 168 206 225 200 147 164 195 215 195 158 165 163 163 167 174 173 135 128 124 119 107 108 113 116 120 127 131 135 130 135 130 114 95 110 114 112 115
42 237 223 205 184 156 165 164 219 268 178 157 169 207 226 196 185 181 173 171 172 164 129 121 117 117 119 123 128 128 137 142 147 153 163 157 154 154 152 118 106 125 126 131
180 242 212 172 174 172 193 182 204 204 76 71 129 306 276 245 175 162 171 167 171 168 162 156 138 138 137 140 156 156 163 151 142 138 118 99 80 61 49 43 41 93 139 136
251 264 191 164 209 173 227 220 198 174 141 233 171 237 269 234 212 201 198 174 174 174 165 158 151 150 162 176 169 164 162 146 135 132 133 138 142 156 201 196 208 293 106 127
267 225 185 218 231 193 213 219 194 173 161 224 209 172 280 213 226 236 220 192 175 171 164 165 165 169 171 172 160 159 148 138 133 131 144 148 147 169 163 145 162 239 321 64
253 254 191 214 228 191 141 59 37 49 82 263 226 172 270 227 213 211 213 192 175 167 164 166 166 157 153 143 135 138 130 127 130 137 144 154 164 160 141 162 193 222 255 287
317 306 287 170 57 12 82 85 35 356 358 253 206 159 244 248 216 190 182 178 173 160 157 157 151 152 155 149 149 149 139 131 129 134 146 165 175 173 177 190 198 196 215 244
237 283 265 208 178 189 174 142 157 199 226 273 340 203 257 285 206 151 145 144 143 147 152 158 165 168 171 165 158 158 157 154 147 152 175 163 168 175 198 200 190 200 213 229
194 263 283 244 185 151 151 180 174 152 218 252 277 283 315 20 70 103 118 119 129 145 155 161 163 170 175 173 173 175 168 160 162 168 164 154 169 184 209 209 196 205 223 229
172 250 291 283 55 28 156 149 98 127 176 246 277 252 235 227 194 158 142 145 144 133 143 145 147 165 180 177 171 161 168 177 179 175 179 161 186 201 201 182 202 207 221 230
141 173 304 353 188 203 143 130 125 140 164 169 227 260 222 195 189 181 179 169 159 151 158 160 149 141 140 139 147 156 160 161 165 178 181 156 162 171 156 173 230 220 204 201
139 135 243 262 262 213 178 184 155 167 225 182 186 259 276 189 191 175 175 172 168 161 154 153 140 110 85 98 128 161 173 183 195 190 176 183 179 142 119 242 268 248 211 209
128 118 62 332 328 341 217 204 171 151 142 170 185 252 295 156 169 176 168 165 166 150 135 130 121 128 135 136 129 138 177 209 208 168 158 160 156 186 223 242 261 263 214 218
126 137 176 203 227 230 251 255 204 155 181 214 218 230 262 223 192 191 174 171 163 162 161 160 157 164 162 152 148 152 202 196 133 137 157 180 213 221 235 244 247 249 236 212
118 186 224 240 241 214 233 247 225 200 200 205 224 218 235 229 201 189 180 169 156 157 164 171 173 172 158 146 117 104 12 24 114 123 161 212 229 226 236 251 257 254 248 247
114 188 241 275 246 228 263 267 239 221 207 202 203 246 246 217 145 148 161 159 158 163 174 169 158 160 181 186 175 123 91 43 101 108 188 219 217 235 249 251 248 263 277 285
171 154 159 259 280 352 270 245 208 203 198 183 216 239 198 139 168 183 178 168 173 179 177 177 181 195 204 203 184 174 193 104 82 78 310 271 222 236 254 270 287 274 270 271
158 143 157 218 43 233 246 245 197 186 226 188 176 192 175 189 189 185 169 164 171 178 177 189 194 200 205 202 201 178 97 90 78 30 327 310 269 245 273 277 272 265 255 252
162 151 153 158 210 267 290 279 210 184 253 252 192 179 140 91 61 4 220 171 178 184 188 194 192 177 160 165 159 110 60 57 51 357 324 329 324 268 269 267 267 263 257 260
98 117 140 160 188 236 254 273 287 112 267 288 182 172 169 112 125 252 238 185 164 160 156 149 115 91 102 142 121 111 93 59 301 283 284 296 325 288 261 267 275 274 259 257
65 98 166 193 219 256 270 278 96 164 239 245 180 168 165 185 210 220 195 179 162 149 144 123 106 103 106 96 113 116 123 235 260 287 322 340 333 299 274 273 284 289 280 278
183 181 194 171 199 254 265 133 169 210 209 174 166 165 172 196 195 160 163 166 154 137 120 113 111 88 59 76 105 119 214 251 266 346 351 329 318 315 335 314 295 288 283 284
196 198 189 186 208 249 189 173 196 157 157 177 162 171 155 137 147 162 166 164 151 142 136 123 123 105 46 50 102 157 255 287 8 12 335 315 320 325 321 300 289 292 283 274
298 77 126 228 273 295 303 52 64 84 161 197 163 155 147 152 166 164 165 154 145 145 146 137 120 112 44 346 9 222 240 176 87 355 315 313 317 319 319 311 292 276 267 262
249 212 168 254 276 323 307 270 240 300 7 109 103 162 162 155 170 184 184 179 173 166 164 154 154 161 199 284 312 307 234 118 82 320 305 310 308 306 309 309 300 284 262 263
235 207 206 238 234 213 245 250 238 191 237 178 144 178 166 163 176 180 183 189 178 170 163 151 165 178 210 247 292 307 273 150 133 333 307 297 298 300 307 309 320 322 308 309
Height
1507 1513 1517 1514 1513 1514 1517 1521 1525 1521 1516 1520 1524 1525 1523 1522 1522 1522 1523 1524 1525 1526 1527 1528 1529 1530 1531 1532 1533 1533 1534 1535 1535 1536 1536 1536 1537 1538 1538 1538 1538 1538 1538 1537
1513 1515 1509 1508 1509 1512 1516 1522 1523 1519 1515 1519 1525 1525 1522 1521 1521 1521 1522 1523 1524 1526 1527 1528 1528 1529 1529 1530 1531 1532 1533 1533 1534 1534 1535 1536 1536 1537 1537 1538 1538 1538 1537 1536
1514 1511 1505 1507 1511 1514 1516 1520 1520 1521 1518 1519 1523 1528 1524 1520 1520 1520 1521 1521 1522 1524 1525 1526 1527 1528 1529 1529 1530 1530 1531 1532 1533 1533 1534 1535 1536 1536 1537 1537 1537 1537 1536 1536
1510 1506 1506 1508 1510 1511 1518 1511 1512 1516 1524 1530 1526 1540 1527 1522 1520 1519 1519 1520 1521 1522 1523 1524 1525 1526 1527 1528 1529 1529 1530 1531 1532 1532 1533 1533 1533 1534 1534 1535 1535 1535 1535 1535
1511 1506 1507 1509 1508 1507 1510 1507 1510 1513 1520 1528 1528 1536 1531 1522 1522 1519 1518 1518 1518 1520 1521 1522 1523 1525 1526 1527 1528 1529 1529 1530 1530 1531 1532 1532 1533 1533 1533 1534 1534 1534 1533 1533
1507 1504 1504 1504 1503 1503 1505 1510 1514 1520 1526 1537 1529 1535 1534 1525 1518 1516 1515 1515 1516 1518 1519 1521 1522 1524 1525 1526 1527 1527 1528 1528 1529 1530 1530 1531 1531 1531 1532 1532 1532 1532 1532 1531
1512 1506 1502 1502 1505 1505 1508 1523 1538 1539 1544 1540 1526 1531 1530 1516 1511 1511 1512 1513 1514 1516 1518 1519 1521 1522 1523 1524 1525 1526 1526 1527 1528 1528 1529 1529 1529 1530 1530 1530 1530 1530 1530 1529
1522 1520 1505 1502 1505 1509 1510 1520 1538 1545 1545 1538 1526 1530 1523 1512 1509 1509 1510 1512 1513 1514 1516 1518 1519 1520 1522 1523 1524 1525 1525 1526 1526 1527 1527 1527 1528 1528 1528 1529 1528 1528 1528 1528
1521 1518 1503 1500 1500 1504 1511 1518 1518 1531 1532 1538 1534 1526 1518 1511 1510 1510 1511 1512 1512 1513 1515 1516 1518 1519 1520 1521 1522 1523 1524 1524 1525 1525 1525 1525 1526 1526 1526 1526 1527 1526 1526 1526
1512 1517 1507 1501 1501 1502 1505 1511 1524 1530 1538 1542 1535 1529 1526 1516 1513 1511 1511 1511 1512 1513 1514 1515 1517 1518 1519 1520 1521 1522 1522 1523 1523 1523 1524 1524 1524 1524 1524 1524 1524 1524 1523 1523
1509 1517 1513 1507 1507 1509 1509 1512 1518 1528 1531 1539 1541 1532 1511 1510 1509 1510 1510 1510 1510 1511 1513 1514 1515 1517 1518 1519 1519 1520 1520 1521 1521 1521 1522 1522 1522 1522 1522 1522 1522 1521 1521 1520
1509 1517 1521 1512 1503 1501 1504 1508 1515 1527 1529 1531 1535 1530 1505 1505 1506 1506 1508 1509 1510 1511 1512 1513 1514 1515 1516 1517 1518 1518 1519 1519 1519 1519 1520 1520 1520 1520 1519 1519 1519 1518 1518 1518
1508 1517 1525 1521 1515 1506 1505 1504 1507 1515 1524 1530 1533 1526 1505 1505 1506 1506 1506 1508 1509 1510 1511 1512 1513 1514 1515 1515 1516 1516 1517 1517 1517 1517 1517 1517 1517 1517 1516 1516 1516 1515 1515 1514
1504 1514 1521 1523 1518 1510 1508 1505 1504 1512 1522 1524 1521 1516 1509 1506 1506 1505 1506 1507 1508 1509 1510 1511 1511 1512 1513 1514 1514 1514 1514 1515 1515 1515 1515 1515 1514 1514 1514 1513 1513 1512 1511 1511
1504 1512 1511 1509 1505 1504 1505 1504 1502 1506 1509 1514 1511 1510 1506 1503 1503 1503 1504 1505 1506 1507 1508 1508 1509 1510 1511 1512 1512 1512 1512 1512 1512 1512 1512 1512 1512 1511 1511 1510 1509 1509 1508 1508
1505 1509 1509 1508 1502 1502 1504 1502 1501 1502 1503 1506 1506 1507 1501 1501 1501 1502 1503 1504 1504 1505 1506 1506 1507 1508 1509 1509 1509 1509 1510 1510 1510 1510 1509 1509 1509 1508 1508 1507 1506 1506 1505 1505
1507 1509 1512 1514 1505 1503 1509 1503 1502 1502 1500 1501 1505 1503 1499 1501 1501 1501 1501 1502 1502 1503 1504 1504 1505 1506 1506 1507 1507 1507 1508 1508 1508 1507 1507 1506 1506 1505 1505 1504 1503 1503 1502 1501
1505 1509 1514 1514 1510 1515 1507 1496 1496 1498 1498 1497 1497 1498 1498 1498 1498 1499 1500 1500 1500 1501 1502 1502 1503 1504 1505 1505 1505 1506 1506 1506 1505 1505 1504 1503 1502 1502 1501 1501 1500 1499 1499 1498
1498 1505 1513 1516 1515 1511 1502 1496 1495 1498 1500 1497 1497 1497 1497 1497 1498 1499 1499 1499 1499 1500 1500 1500 1501 1502 1503 1503 1503 1503 1503 1503 1503 1502 1501 1500 1499 1499 1498 1497 1497 1496 1495 1494
1498 1501 1510 1514 1515 1515 1503 1494 1492 1495 1501 1496 1495 1496 1497 1497 1501 1499 1497 1498 1498 1498 1499 1499 1499 1500 1501 1501 1501 1501 1501 1500 1500 1499 1498 1498 1497 1496 1494 1494 1493 1492 1491 1490
1504 1506 1510 1512 1512 1507 1497 1492 1493 1504 1502 1494 1493 1493 1494 1495 1496 1495 1495 1496 1496 1496 1497 1497 1498 1498 1498 1499 1499 1498 1498 1498 1498 1497 1496 1495 1494 1493 1491 1490 1489 1488 1487 1486
1505 1507 1509 1511 1513 1509 1494 1493 1496 1496 1491 1492 1491 1492 1492 1493 1493 1493 1493 1493 1494 1494 1495 1495 1496 1496 1496 1496 1496 1496 1496 1496 1495 1494 1493 1492 1491 1490 1488 1487 1486 1484 1483 1482
1501 1500 1501 1502 1502 1494 1491 1491 1491 1490 1490 1490 1490 1490 1491 1491 1491 1491 1491 1491 1492 1492 1493 1493 1494 1494 1494 1494 1494 1494 1493 1493 1492 1491 1490 1489 1488 1486 1485 1483 1482 1480 1479 1478
1497 1495 1497 1498 1495 1492 1491 1490 1490 1490 1489 1489 1488 1488 1489 1489 1489 1489 1489 1490 1490 1490 1490 1491 1491 1491 1492 1492 1492 1492 1491 1490 1489 1488 1487 1486 1484 1483 1481 1480 1479 1477 1475 1474
1496 1495 1497 1497 1494 1491 1490 1490 1489 1489 1488 1487 1487 1487 1487 1487 1487 1488 1487 1488 1488 1488 1488 1489 1489 1489 1489 1489 1489 1489 1488 1487 1486 1485 1483 1482 1481 1480 1478 1477 1475 1474 1473 1472
1493 1494 1495 1494 1490 1490 1489 1488 1488 1487 1486 1485 1485 1484 1485 1485 1485 1485 1485 1485 1486 1486 1486 1486 1486 1486 1487 1487 1486 1486 1485 1484 1483 1482 1480 1479 1478 1476 1474 1473 1471 1470 1469 1468